Pride of the Valley 5K
Baldwin Park, Ca.
August 7, 2010
     
Results by results@resultsbyprimetime.com  
Software by ChuckScore  
     
  State/
Place Name Bib Gun Tag Pace Sex Age City County
1 Sees,Jonathan 264 14:37.5 14:37.0 4:43 M 22 Newark CA
2 Chavez,Michael 67 14:42.7 14:42.0 4:45 M 25 Fullerton CA
3 Sartori,Matthew 682 15:09.9 15:09.2 4:53 M 21 Mentone CA
4 Stano,Axel 632 15:11.4 15:10.4 4:54 M 21 Everett WA
5 Valencia,Juan 700 15:19.6 15:18.4 4:56 M 30 Los Angeles CA
6 Estrada,Erik 314 15:21.3 15:20.9 4:57 M 22 Baldwin Park CA
7 Martinz,Fed 440 15:22.7 15:22.7 4:58 M 22 Azusa CA
8 Londono,Daniel 609 15:24.2 15:23.6 4:58 M 19 Whittier CA
9 Zarazua,Richard 539 15:27.1 15:25.8 4:59 M 19 Pasadena CA
10 Jordan,Cody 163 15:27.6 15:26.7 4:59 M 17 Appl Valley CA
11 Zentmyer,Will 503 15:32.7 15:29.4 5:00 M 20 La Canada Flintridge CA
12 Nuno,Manny 604 15:33.7 15:32.9 5:01 M 23 Huntington Beach CA
13 Guirard,Mitch 608 15:43.1 15:42.0 5:04 M 24 West Palm Beach FL
14 Bazinet,Jon 376 15:47.1 15:46.3 5:05 M 17 Whittier CA
15 Dominguez,John 86 15:46.3 15:46.3 5:05 M 15 Compton CA
16 Hurtado,Oswaldo 430 15:47.6 15:47.1 5:06 M 36 South Gate CA
17 Martinez,Ruben 371 15:55.7 15:54.2 5:08 M 25 Hacienda Heights CA
18 Mcmanus,Jimmy 191 16:04.7 16:04.7 5:11 M 18 Apple Valley CA
19 Prieto,Jason 230 16:06.7 16:05.5 5:11 M 17
20 Salazar,Gilbert 689 16:07.2 16:06.6 5:12 M 37 Long Beach CA
21 Nay,Paul 334 16:07.6 16:07.1 5:12 M 18 Baldwin Park CA
22 Mancilla,Edgar 6 16:11.6 16:10.6 5:13 M 16 Whittier CA
23 Castillo,Adrian 485 16:16.1 16:13.7 5:14 M 16
24 Ramirez,Andrew 674 16:18.2 16:17.6 5:15 M 17 Whittier CA
25 Guzma,Tim 7 16:20.0 16:19.6 5:16 M 15 Whittier CA
26 Gonzales,Christian 124 16:21.7 16:19.9 5:16 M 17 Exeter CA
27 Contreras,Rigoberto 370 16:22.5 16:21.5 5:17 M 33 Bell CA
28 Gonzales,Mark 669 16:24.5 16:22.4 5:17 M 37 La Habra CA
29 Santillan JR.,Martin 261 16:28.2 16:26.1 5:18 M 17 Victorville CA
30 Sanchez,Martn 434 16:27.5 16:26.8 5:18 M 37 Los Angeles CA
31 Aleman,Juan 426 16:29.8 16:27.8 5:19 M 19 La Habra CA
32 Panchal,Anand 221 16:33.3 16:30.2 5:19 M 16 Walnut CA
33 Thomas,Tanner 288 16:42.1 16:33.6 5:21 M 16 Apple Valley CA
34 Evans,Marcus 98 16:39.6 16:37.4 5:22 M 16 Cherry Valley CA
35 Salas,Jon 4 16:39.8 16:39.0 5:22 M 16 Whittier CA
36 Melgarelo,Eddie 482 16:40.7 16:39.7 5:23 M 18
37 Granados,Jimmy 132 16:45.1 16:43.8 5:24 M 16 Covina CA
38 Zarazua,Esteven 502 16:48.4 16:44.0 5:24 M 18 Pasadena CA
39 Sager,Robert 253 16:51.1 16:44.9 5:24 M 17 Apple Valley CA
40 Huynh,Steven 322 16:47.6 16:47.1 5:25 M 17 Baldwin Park CA
41 Covarrubias,Nick 3 16:49.0 16:48.4 5:25 M 15
42 Castro,Gabriel 58 16:51.8 16:50.9 5:26 M 15 Baldwin Park CA
43 Alburez,Karla 492 16:52.3 16:51.3 5:26 F 24 Los Angeles CA
44 Rodriguez,Francisco 243 17:02.1 17:00.9 5:29 M 15 Los Angeles CA
45 Martinez,Brennion 185 17:06.3 17:04.7 5:31 M 16 Los Angeles CA
46 Smith,Karlan 631 17:08.9 17:06.6 5:31 M 15 Barstow CA
47 Wadeck,Vivien 633 17:14.3 17:12.8 5:33 F 31 North Hollywood CA
48 Vanderwyk,Tracee 538 17:17.8 17:15.2 5:34 F 18 Temple City CA
49 Cisneros,Albert 71 17:18.5 17:17.3 5:35 M 17
50 Walters,Eric 408 17:20.1 17:18.4 5:35 M 28 Huntington Beach CA
51 Daciuk,John 80 17:20.4 17:19.0 5:35 M 32 San Gabriel CA
52 Dumler,Kevin 89 17:21.8 17:20.0 5:35 M 17
53 Jaggers,Chris 361 17:21.1 17:20.0 5:35 M 49 Yorba Linda CA
54 Soto,Andres 714 17:24.1 17:22.9 5:36 M 36 Tarzana CA
55 Hoil,Javier 382 17:26.5 17:26.2 5:37 M 30 Fontana CA
56 Martinez,Christian 5 17:30.9 17:30.1 5:39 M 16 Baldwin Park CA
57 Magallanes,Alejandro 327 17:38.2 17:36.9 5:41 M 17 Baldwin Park CA
58 Maloof,Kodi 183 17:43.1 17:37.1 5:41 M 16 Apple Valley CA
59 Carlos,Josue 483 17:39.9 17:39.0 5:42 M 16
60 Lopez,Jesus 692 17:40.7 17:39.9 5:42 M 44
61 Newport,Mark 208 17:41.7 17:40.6 5:42 M 15 Phillips Ranch CA
62 Martinez,Bret 494 17:48.5 17:41.0 5:42 M 15 Ontario CA
63 Messina,Tim 663 17:43.5 17:42.0 5:43 M 22 El Monte CA
64 Mitchell,Raymond 368 17:52.0 17:48.8 5:45 M 29 Walnut CA
65 Santillan,Bernardo 686 17:51.2 17:50.6 5:45 M 26 Pico Rivera CA
66 Dominguez,Ruben 87 17:52.4 17:51.6 5:46 M 13 Compton CA
67 Vega,Francisco 348 17:55.8 17:54.4 5:47 M 16 Baldwin Park CA
68 Yarnell,Adam 305 17:57.8 17:56.1 5:47 M 16
69 Kennedy,Kyle 165 17:58.7 17:57.1 5:47 M 17
70 Bennett-goren,Zachary 39 18:03.8 17:59.5 5:48 M 16 Irvine CA
71 Oliver,Noah 212 18:10.2 18:05.7 5:50 M 15 Apple Valley CA
72 Gutierrez,Richard 321 18:07.6 18:06.2 5:50 M 17 Baldwin Park CA
73 Castillo,Carlos 427 18:11.7 18:11.0 5:52 M 14 Pico Rivera CA
74 Avellan,Justin 23 18:13.3 18:11.5 5:52 M 14 San Gabriel CA
75 Sou,Larry 343 18:14.4 18:12.7 5:53 M 16 Baldwin Park CA
76 Gomez,Nabor 381 18:17.5 18:15.7 5:53 M 58
77 Guzma,Breann 384 18:19.9 18:17.4 5:54 F 17 Whittier CA
78 Armenta,Max 363 18:22.8 18:17.6 5:54 M 16 Monrovia CA
79 Mcfadden,Stephen 189 18:28.0 18:17.7 5:54 M 27 Los Angeles CA
80 Krishnek,Bobeya 169 18:26.3 18:23.1 5:56 F 26 Pico Rivera CA
81 Woods,Bradley 496 18:28.4 18:25.2 5:57 M 17 Ontario CA
82 Miles,Nossett 386 18:26.8 18:25.4 5:57 M 17 Whittier CA
83 Izaguirre,Eduardo 158 18:31.6 18:28.8 5:58 M 15 Santa Fe Springs CA
84 Bruseno,Gus 162 18:31.0 18:29.0 5:58 M 17
85 Alaniz,Veronica 699 18:30.0 18:29.2 5:58 F 37 South Gate CA
86 Gonzales,Allison 123 18:33.5 18:32.1 5:59 F 20 Exeter CA
87 Gotts,Jeremiah 610 18:43.2 18:39.4 6:01 M 15 Whittier CA
88 Long,Sean 369 18:49.0 18:46.5 6:03 M 27 South Pasadena CA
89 Chavez,Rutilo 701 18:48.5 18:46.9 6:04 M 52 Paramount CA
90 Sanchez,Mike 256 18:47.6 18:47.1 6:04 M 13 Pico Rivera CA
91 Vara,Jose 644 18:48.8 18:48.3 6:04 M 43 Montebello CA
92 Landeros,Nick 170 18:55.2 18:49.0 6:04 M 14
93 Martinez,Adan 616 18:50.5 18:49.0 6:04 M 44 Los Angeles CA
94 Izaguirre,Joseph 159 18:53.7 18:50.3 6:05 M 15 Santa Fe Springs CA
95 Caro,Benjamin 638 18:53.9 18:51.9 6:05 M 65
96 Barret,Travis 34 18:56.5 18:52.2 6:05 M 16
97 Mcgee,Kenny 190 19:00.9 18:57.0 6:07 M 14
98 Lara,Joshua 603 19:01.0 19:00.1 6:08 M 13 Pico Rivera CA
99 Freestone,Cameron 108 19:13.5 19:02.4 6:09 M 14
100 Barcelo,Anna 29 19:06.1 19:03.3 6:09 F 15 Walnut CA
101 Brown,Brandon 42 19:06.7 19:04.2 6:09 M 14 Baldwin Park CA
102 Garcia,Elias 447 19:07.7 19:05.2 6:09 M 60
103 Chavez,Joshua 65 19:19.2 19:05.7 6:10 M 13 West Covina CA
104 Huang,Timothy 157 19:19.5 19:06.5 6:10 M 15 Walnut CA
105 Hernandez,Jacob 146 19:11.3 19:10.7 6:11 M 13 Pico Rivera CA
106 Quintanill,Ezequie\ 449 19:14.3 19:10.7 6:11 M 13 Los Angeles CA
107 Taylor,Sara 285 19:16.0 19:13.8 6:12 F 17 Victorville CA
108 Orwelas,Jeremy 217 19:16.1 19:14.3 6:12 M 17 Los Angeles CA
109 Skiver,Donald 272 19:18.7 19:15.6 6:13 M 48 Pasadena CA
110 Rodriguez,Jonathan 367 19:19.1 19:18.2 6:14 M 17 Whittier CA
111 Salinas C,Lydia 409 19:19.4 19:18.3 6:14 F 50 Los Angeles CA
112 Edwards,Hannah 90 19:19.7 19:18.7 6:14 F 16 Whittier CA
113 Marquez,Daniel 373 19:39.3 19:18.8 6:14 M 17 Montebello CA
114 Edwards,Jude 91 19:23.3 19:21.7 6:15 M 15 Whittier CA
115 Lopzz Luna,Jorge 450 19:24.7 19:22.3 6:15 M 13 Los Angeles CA
116 Escalera,Martin 649 19:40.1 19:22.4 6:15 M 24 El Monte CA
117 Rodriguez,Miguel 709 19:24.5 19:23.8 6:15 M 47 La Puente CA
118 Tanwongpraset,Andrew 602 19:30.9 19:24.2 6:16 M 16 Rosemead CA
119 Tanwongpraset,Adrian 601 19:32.7 19:26.3 6:16 M 16 Rosemead CA
120 Snyder,Jeff 278 19:32.9 19:30.7 6:18 M 54 Pasadena CA
121 Maroste,Zack 184 19:44.2 19:31.6 6:18 M 15 Apple Valley CA
122 Collier,Yeman 76 19:41.8 19:38.9 6:20 M 38 Pasadena CA
123 Aguilera,Eduardo 665 19:40.6 19:39.4 6:20 M 17
124 Starr,Tom 605 19:43.2 19:39.5 6:20 M 47 Newport Beach CA
125 Garcia,Andres 319 19:44.2 19:41.5 6:21 M 15 Baldwin Park CA
126 Vasquez,Jossph 390 19:43.4 19:41.9 6:21 M 18 El Monte CA
127 Silva,Francisco 268 19:47.1 19:44.8 6:22 M 15 Los Angeles CA
128 Kurrle,Ron 540 19:45.8 19:45.2 6:22 M 62 Irvine CA
129 Pech,Alberto 336 19:48.8 19:48.8 6:24 M 16 Baldwin Park CA
130 Cotto,Jonah 313 19:52.2 19:51.3 6:24 M 14 Baldwin Park CA
131 Ruiz,Isaac 251 19:53.0 19:51.9 6:25 M 14 Pico Rivera CA
132 Jeffers,Chris 672 19:58.4 19:54.0 6:25 M 50 Pomona CA
133 Garcia,Lindsay 366 19:58.2 19:54.5 6:25 F 20 San Bernardino CA
134 Waddington,Alan 404 20:03.6 19:58.0 6:26 M 52 Glendora CA
135 Gonzalez,Michelle 127 19:59.7 19:59.7 6:27 F 18 Monterey Park CA
136 Huang,Mark 156 20:14.1 20:00.7 6:27 M 47 Walnut CA
137 Moreno,Adrian 198 20:03.4 20:01.1 6:27 M 25 Pico Rivera CA
138 Jimenez,Michelle 161 20:05.5 20:01.3 6:28 F 20 Baldwin Park CA
139 Gutierrez,Saul 706 20:08.3 20:05.4 6:29 M 43 Pico Rivera CA
140 Preciado,Javier 664 20:10.8 20:08.5 6:30 M 47 South Gate CA
141 Orcgel,Juan 213 20:11.8 20:09.6 6:30 M 16 El Monte CA
142 Mejia,Jorge 192 20:17.0 20:10.4 6:30 M 17
143 Amancio,Juan 380 20:13.4 20:10.4 6:30 M 39 Rancho Cucamonga CA
144 Tohom,Douglas 412 20:19.5 20:16.4 6:32 M 16 Los Angeles CA
145 Gutierrez,Mario 446 20:20.2 20:17.9 6:33 M 33 El Monte CA
146 Villana,Louie 453 20:22.0 20:18.1 6:33 M 35 Los Angeles CA
147 Candelaria,Alexss 448 20:26.9 20:18.1 6:33 F 25 Glendora CA
148 Vargas,Oscar 347 20:22.8 20:19.9 6:34 M 14 Baldwin Park CA
149 Cossio,David 415 20:33.1 20:21.6 6:34 M 44 Diamond Bar CA
150 Rodriguez,Alan 417 20:34.0 20:22.1 6:34 M 14
151 Hernandez,Michael 148 20:25.5 20:23.1 6:35 M 15 Alta Loma CA
152 Gamez,Gabriel 318 20:29.7 20:26.7 6:36 M 14 Baldwin Park CA
153 Nathan,Michael 498 20:34.4 20:27.5 6:36 M 16 Ontario CA
154 Garcia,Miguel Angel 320 20:30.3 20:27.8 6:36 M 16 Baldwin Park CA
155 Graves,Claire 537 20:35.4 20:29.2 6:37 F 11 Highland CA
156 Olguin,Jake 643 20:31.9 20:29.8 6:37 M 11 Pico Rivera CA
157 Gooodman,Jeff 129 20:32.2 20:30.1 6:37 M 48 Upland CA
158 Stert,Margot 280 20:32.2 20:31.8 6:37 F 17
159 Jimenez,Miriam 323 20:37.8 20:33.0 6:38 F 17 Baldwin Park CA
160 Long,Leon 180 20:42.2 20:34.1 6:38 M 40 Yucaipa CA
161 Zuniga,Carlos 646 21:12.2 20:38.3 6:39 M 18 Baldwin Park CA
162 Guerrero,Cristian 136 20:44.1 20:40.5 6:40 F 17 Montebello CA
163 Knutsen,Samantha 168 20:46.6 20:44.2 6:41 F 17 Adelante CA
164 Bennis,Chelsea 40 20:57.3 20:44.7 6:42 F 15 Apple Valley CA
165 Deimling,Katie 81 20:57.2 20:44.8 6:42 F 14 Apple Valley CA
166 Perez,Christina 490 20:48.2 20:45.2 6:42 F 17 Ontario CA
167 Murray,Bob 675 20:54.6 20:48.8 6:43 M 55 Yorba Linda CA
168 Shanks,James 372 21:02.2 20:59.2 6:46 M 59 Sun Valley CA
169 Cadengo,David 406 21:24.9 21:03.6 6:48 M 30 Corona CA
170 Smith,David 274 21:05.0 21:03.6 6:48 M 53 Irvine CA
171 Briggs,Robb 673 21:07.7 21:04.8 6:48 M 41 Pasadena CA
172 Rodriguez,Alexander 242 21:19.0 21:04.9 6:48 M 18 Baldwin Park CA
173 Carranza,Ricardo 615 21:12.0 21:07.8 6:49 M 47
174 Contreras,Abel 77 21:16.6 21:14.0 6:51 M 53 Temple City CA
175 Rainey,Emma 232 21:23.0 21:17.8 6:52 F 29 Santa Monica CA
176 Preciado,Carmen 354 21:28.5 21:20.9 6:53 F 45 South Gate CA
177 Herrera,Vanessa 451 21:31.2 21:28.5 6:56 F 16 Los Angeles CA
178 Williams,Sara 304 21:42.5 21:30.3 6:56 F 16 Apple Valley CA
179 Carrera,Kristen 684 21:32.9 21:30.4 6:56 F 15 Whittier CA
180 Alfaro,Michelle 13 21:35.0 21:31.2 6:57 F 17 Baldwin Park CA
181 Castro,Danny 698 21:37.3 21:32.2 6:57 M 58 San Dimas CA
182 Dominguez,Janeth 85 21:39.0 21:36.7 6:58 F 11 Compton CA
183 Lopez,Luis 325 21:40.9 21:38.2 6:59 M 15 Baldwin Park CA
184 Moreno,Juan 697 21:47.7 21:40.9 7:00 M 45 Los Angeles CA
185 Magallanes,Iesha 487 21:45.2 21:43.8 7:01 F 12 Pomona CA
186 Ems,John 614 21:48.5 21:44.5 7:01 M 55 Rancho Cucamonga CA
187 Guzman,Isidro 431 21:56.2 21:46.1 7:01 M 55 Upland CA
188 Flores,John 635 21:58.5 21:46.7 7:02 M 35 Alhambra CA
189 Holloway,John 150 21:54.3 21:51.0 7:03 M 48 Downey CA
190 Boto,Oswaldo 713 21:55.8 21:52.2 7:03 M 12
191 Rocha,Alejandro 683 21:57.8 21:54.9 7:04 M 31 Ontario CA
192 Diaz,Andrea 501 22:02.8 21:56.4 7:05 F 12 Pomona CA
193 Zuniga,Lucy 688 21:59.3 21:57.2 7:05 F 50 Cypress CA
194 Gould,Ashley 131 21:58.5 21:57.5 7:05 F 15
195 Valdez,Andrew 295 21:59.4 21:59.4 7:06 M 15 Monterey Park CA
196 Stump,Olivia 282 22:01.8 22:01.4 7:06 F 17
197 Aleman,Jennifer 12 22:07.3 22:04.9 7:07 F 14 La Habra CA
198 Tapia,Raul 411 22:09.9 22:08.0 7:08 M 14 Los Angeles CA
199 Vazquez,Marcos 424 22:13.7 22:10.8 7:09 M 66 Pacoima CA
200 Alvarez,Lidia 16 22:17.0 22:12.6 7:10 F 17 Baldwin Park CA
201 Joly,Rick 671 22:16.0 22:14.1 7:10 M 61 Sun Valley CA
202 Ramirez,Rudy 375 22:19.6 22:15.1 7:11 M 43 Downey CA
203 Haro,Alberto 142 22:17.8 22:15.6 7:11 M 54 Baldwin Park CA
204 Carlton,Lucas 53 22:52.0 22:25.9 7:14 M 14 Whittier CA
205 Gutierrez,Mauricio 702 22:31.9 22:26.5 7:14 M 24
206 Armenta,Mara 364 22:32.8 22:29.1 7:15 F 13 Monrovia CA
207 Gutierrez,Mike 435 22:47.9 22:29.5 7:15 M 43 Baldwin Park CA
208 Lozano,Manuel 352 22:32.5 22:30.8 7:16 M 51 Baldwin Park CA
209 Palos,Cienna 220 22:36.4 22:34.6 7:17 F 14
210 Cisneros,Francis 2 22:39.3 22:35.3 7:17 F 17 Baldwin Park CA
211 Barrera,Diego 32 22:41.5 22:36.3 7:18 M 10 Whittier CA
212 Ortiz,Luis 413 22:39.5 22:36.9 7:18 M 18 Los Angeles CA
213 Delarosa,Arelio 681 22:45.6 22:39.7 7:19 M 53 Los Angeles CA
214 Rodriguez,Mauro 617 22:44.4 22:43.2 7:20 M 69 Los Angeles CA
215 Rodriguez,Sofi 500 22:51.2 22:43.3 7:20 F 13 La Puente CA
216 Escobar,Lizbeth 96 22:51.4 22:45.0 7:20 M 28 San Gabriel CA
217 Diaz,Antonio 710 23:13.9 22:48.8 7:22 M 8 Pomona CA
218 Uribe,Janet J. 294 22:51.6 22:49.8 7:22 F 39 Pasadena CA
219 Rebollar-pagaza,Antonio H. 234 22:56.7 22:51.1 7:22 M 64 El Monte CA
220 Martinez,Brenda 452 22:55.6 22:53.4 7:23 F 17 Los Angeles CA
221 Marroquin,Cesar 661 23:09.5 23:02.4 7:26 M 16 Montebello CA
222 Carrera,Adrian 57 23:06.4 23:02.6 7:26 M 16 Whittier CA
223 Stansbury,Amber 279 23:03.9 23:02.7 7:26 F 17
224 Fimbres,Savannah 100 23:05.2 23:02.9 7:26 F 15 Hacienda Heights CA
225 Povoa,Ully 229 23:04.9 23:03.9 7:26 F 17
226 Contresas,Adrianna 488 23:08.2 23:04.7 7:27 F 15
227 Gomez,Maria 491 23:08.2 23:04.8 7:27 F 15 Ontario CA
228 Mejia,Edgar 330 23:14.7 23:06.4 7:27 M 41 Baldwin Park CA
229 Rodriguez,Salvador 247 23:19.3 23:06.5 7:27 M 39 Torrance CA
230 Hennessy,Tara 489 23:13.4 23:08.5 7:28 F 12 Wrightwood CA
231 Democh,Robert 393 23:12.7 23:08.6 7:28 M 57 San Gabriel CA
232 Diaz,Eduardo 611 23:20.7 23:14.1 7:30 M 41
233 Ortiz,Mauricio 216 23:25.4 23:15.0 7:30 M 47 Baldwin Park CA
234 Mucino,Alice 203 23:21.0 23:16.7 7:31 F 16 Baldwin Park CA
235 Rojo,Anthony S. 248 23:50.8 23:16.7 7:31 M 20 Baldwin Park CA
236 Eichel,Yoko 92 23:22.7 23:22.4 7:32 F 63 Woodland Hills CA
237 Mucino JR.,Sergio 204 23:52.8 23:24.7 7:33 M 12 Baldwin Park CA
238 Stelyn Lawson,Loukas 495 23:32.5 23:25.3 7:33 M 15 Ontario CA
239 Hernandez,Helio 606 23:55.1 23:26.1 7:34 M 60
240 Flores,Carlos 103 23:31.8 23:26.4 7:34 M 12 Whittier CA
241 Carlton,Grayson 52 23:38.6 23:28.1 7:34 M 43 Whittier CA
242 Campiran,Felipe 377 23:34.3 23:30.5 7:35 M 55 Chino CA
243 Machado,Daniel 326 23:33.8 23:32.4 7:36 M 13 Baldwin Park CA
244 Riley,Gary 641 23:45.9 23:36.4 7:37 M 18 West Covina CA
245 Cuadro,Ceasar 79 23:45.1 23:37.6 7:37 M 14 Baldwin Park CA
246 Bautista,Sebastian 36 23:44.4 23:39.1 7:38 M 10 Whittier CA
247 Lopez,Freddie 712 23:56.3 23:39.6 7:38 M 23 Ontario CA
248 Newport,Mary 209 23:49.0 23:47.8 7:41 F 45 Phillips Ranch CA
249 Hotchkiss,David 152 23:53.5 23:48.7 7:41 M 50 Whittier CA
250 Rodriguez,Linda 499 24:13.5 23:49.5 7:41 F 17 La Puente CA
251 Chavez,Victor 69 23:59.7 23:50.4 7:41 M 59 Baldwin Park CA
252 Lona,Rochelle 179 23:58.3 23:52.5 7:42 F 37 Arcadia CA
253 Wood,Joey 349 24:43.3 24:05.6 7:46 M 47 Baldwin Park CA
254 Barcelo,Lizbeth 31 24:22.5 24:08.1 7:47 F 33 Walnut CA
255 Sanchez,Christina 255 24:16.8 24:15.1 7:49 F 15
256 Ruiz,Steven 677 24:58.9 24:18.7 7:51 M 34 El Monte CA
257 Garcia,Jaime 353 24:26.3 24:20.6 7:51 M 26 El Monte CA
258 Flores,Minnie 634 24:39.1 24:22.4 7:52 F 32 Alhambra CA
259 Valle,Victor 410 24:43.7 24:29.0 7:54 M 40
260 Farley,William 392 24:54.6 24:29.3 7:54 M 51 San Marino CA
261 Thompson,Jeannie 289 24:45.9 24:34.7 7:56 F 54 Highland CA
262 Duenas,Timothy 362 24:44.0 24:36.8 7:56 M 49 Downey CA
263 Colomes,Stephanie 400 24:40.3 24:37.6 7:57 F 16 Los Angeles CA
264 Garcia,Benjamin 115 25:04.0 24:38.0 7:57 M 12 Whittier CA
265 Merlo,Jhoel 456 24:46.0 24:42.0 7:58 M 18 West Covina CA
266 Herrera,Francisco 398 24:50.7 24:43.5 7:59 M 37 Los Angeles CA
267 Perez,Eligio 647 25:03.0 24:45.4 7:59 M 19 Montclair CA
268 Brandt,Kyra 41 24:49.2 24:46.9 8:00 F 13
269 Jasso,Jackie 389 24:51.0 24:47.2 8:00 F 35 Montebello CA
270 Milan,Mercedes 193 24:52.1 24:49.9 8:01 F 17 Whittier CA
271 Snavely,Ted 687 24:56.9 24:51.2 8:01 M 51 Mentone CA
272 Gomez,Selena 1 25:01.3 24:56.9 8:03 F 15
273 Alvarado,Steven 14 25:14.1 24:57.0 8:03 M 24 West Covina CA
274 Salazar,Norma 254 25:19.2 24:57.6 8:03 F 37 West Covina CA
275 Conde,Hugo 311 24:58.4 24:58.4 8:03 F 13 Baldwin Park CA
276 Carmona,Adriana 55 25:14.6 25:00.8 8:04 F 16 Baldwin Park CA
277 Picarella,Adriana 227 25:02.8 25:00.9 8:04 F 15 Whittier CA
278 Gonzalez,Rita 613 25:17.2 25:01.1 8:04 F 30 Bell CA
279 Yarnell,Art 626 25:16.9 25:09.9 8:07 M 53 Upland CA
280 Gomez,Luis 122 25:14.2 25:11.2 8:08 M 14 Montebello CA
281 Diala,Pamela 82 25:13.3 25:11.5 8:08 F 16
282 Rodriguez,Martha 244 25:33.0 25:13.1 8:08 F 41 South Gate CA
283 Kaneda,Tomoko 164 25:32.8 25:13.6 8:08 F 28 Los Angeles CA
284 Davis,Karen 645 25:31.5 25:16.9 8:09 F 48 Glendora CA
285 Moreno,Nazario 202 25:35.0 25:23.6 8:11 M 40 Baldwin Park CA
286 Warren,Allen 433 25:47.3 25:27.1 8:13 M 77
287 Rodriguez,Sofi 707 25:50.3 25:27.4 8:13 F 40 La Puente CA
288 Becerra,Johnny 38 25:34.0 25:28.2 8:13 M 20 Monrovia CA
289 Singhal,Rohan 270 25:57.5 25:35.4 8:15 M 13 Baldwin Park CA
290 Ogata,Joe 210 26:10.6 25:36.4 8:16 M 61 Pacoima CA
291 Castro,Richard 59 25:43.9 25:37.2 8:16 M 53 Diamond Bar CA
292 Marin,Claudia 705 25:47.4 25:41.1 8:17 F 38 Whittier CA
293 Gutierrez,Jesse 139 26:04.5 25:45.6 8:19 M 25 Pico Rivera CA
294 Argudo,Julie 20 26:33.9 25:58.7 8:23 F 40 Upland CA
295 Bihr,Nick 624 26:09.5 26:08.2 8:26 M 16 Whittier CA
296 Gomez,Antonio 121 26:14.3 26:10.9 8:27 M 12 Montebello CA
297 Galindo,Solomon 316 26:33.4 26:15.1 8:28 M 23 Baldwin Park CA
298 Smith,Rebecca 276 26:16.0 26:16.0 8:28 F 19 Woodland Hills CA
299 Darney,Kaidan 436 26:23.8 26:19.1 8:29 F 10 Upland CA
300 Correa,Halaina 618 26:31.7 26:23.1 8:31 F 15 Whittier CA
301 Elizondo,Noelia 695 26:46.7 26:40.0 8:36 F 51 Monterey Park CA
302 Berumen,Sandra 484 26:46.8 26:42.4 8:37 F 13
303 Boyd,Daryle 394 27:05.3 26:44.5 8:38 M 46 Los Angeles CA
304 Felix,Vanessa 99 26:52.6 26:47.4 8:39 F 24 Baldwin Park CA
305 Clark,Mike 365 26:54.8 26:48.4 8:39 M 50 Chino Hills CA
306 Cardenas,Evelina 50 27:03.1 26:48.7 8:39 F 24 Pico Rivera CA
307 Garcia,Henry P. 117 27:17.0 26:49.8 8:39 M 48 Whittier CA
308 Carlos,Erika 51 27:00.8 26:50.4 8:40 F 26 Covina CA
309 Ordaz,Sandra 421 27:01.4 26:54.8 8:41 F 32 La Verne CA
310 Bustillos,Steve 437 27:07.6 26:55.6 8:41 M 55 Colton CA
311 Payan,David 642 27:39.1 27:03.5 8:44 M 46
312 Smith,Eshton 275 27:34.6 27:07.5 8:45 M 22 Pomona CA
313 Gonzalez,Jaime 125 27:45.0 27:07.8 8:45 M 47 Covina CA
314 Carrera,Pablo 619 27:30.0 27:08.2 8:45 M 47 Whittier CA
315 Escalante,Rebecca 383 27:24.5 27:10.5 8:46 F 34 Monterey Park CA
316 Garcia,Taylor 407 27:17.0 27:12.4 8:47 F 17 Baldwin Park CA
317 Najarro,Stephany 333 27:19.6 27:14.8 8:47 F 17 Baldwin Park CA
318 Torres,Audrina 345 27:19.6 27:14.8 8:47 F 17 Baldwin Park CA
319 Morris,Joshua 481 27:31.1 27:28.3 8:52 M 14
320 Singhal,Vijay 271 27:51.1 27:29.5 8:52 M 60 Baldwin Park CA
321 Gutierrez,Ricardo 704 27:34.0 27:34.0 8:54 M 50 Baldwin Park CA
322 Salcido,Daniel 341 27:58.7 27:34.0 8:54 M 18 Montebello CA
323 Carrillo,Cindy 443 27:40.0 27:34.2 8:54 F 15
324 Moya,Gissela 486 27:39.1 27:36.3 8:54 F 14 Upland CA
325 Reyes,Gabriela 235 27:40.7 27:38.8 8:55 F 14
326 Reyes,Michaela 239 27:40.7 27:39.1 8:55 F 14
327 King,Steven 166 27:56.1 27:39.1 8:55 M 36 Rosemead CA
328 Wall,William 680 27:43.8 27:39.1 8:55 M 77 Chino CA
329 Salinas,Martha 620 27:47.1 27:39.2 8:55 F 14 Whittier CA
330 Gutierrez,Diana 137 27:54.3 27:49.7 8:59 F 17 Baldwin Park CA
331 Madrigal,Yessenia 388 28:07.0 27:50.6 8:59 F 16 Los Angeles CA
332 Taylor,Michael 284 28:13.6 27:51.1 8:59 M 52 Rialto CA
333 W. Taylor,Robert 298 28:13.5 27:51.5 8:59 M 67 Rialto CA
334 Larson,Megan 173 27:55.8 27:53.6 9:00 F 15
335 Ward,Michael 299 28:09.0 27:55.3 9:00 M 39 Santa Monica CA
336 Vilches,Maria 297 28:10.9 27:59.5 9:02 F 27 Fontana CA
337 Duenas,Ricardo 88 28:58.4 28:10.6 9:05 M 30 Baldwin Park CA
338 Joly,Kathy 670 28:18.9 28:13.8 9:06 F 60 Sun Valley CA
339 Franke,Lois 696 28:27.2 28:16.6 9:07 F 65 La Verne CA
340 Bahena,Karen 28 28:23.0 28:17.9 9:08 F 13 Baldwin Park CA
341 Moran,Brenda 399 28:24.6 28:20.5 9:09 F 44 Los Angeles CA
342 Tzec,Hugo 293 28:23.2 28:21.8 9:09 M 30 Baldwin Park CA
343 Murillo,Joe 206 28:30.8 28:24.0 9:10 M 63 Fontana CA
344 Moreno,Lonnie 201 29:19.2 28:38.4 9:14 M 35 Alhambra CA
345 Serna,Vivian 342 29:10.0 28:43.2 9:16 F 36 Baldwin Park CA
346 Carrillo,Melissa 309 29:08.5 28:44.2 9:16 F 24 Montebello CA
347 Gutierrez,Linda 711 29:00.2 28:53.0 9:19 F 55 Covina CA
348 Anderson,Robert 17 29:03.4 28:57.5 9:21 M 53 San Diego CA
349 Lanz,Heather 171 29:15.7 28:59.5 9:21 F 20 Baldwin Park CA
350 Tedjo,William 286 29:12.2 28:59.6 9:21 M 15
351 Quiroz,Josie 231 29:13.7 29:06.0 9:23 F 37 Pomona CA
352 Contreras,Eduardo 422 29:24.5 29:11.1 9:25 M 17 Baldwin Park CA
353 Gomez,Julian 694 29:12.0 29:12.0 9:25 M 46
354 Luna,Ana 445 29:52.1 29:20.0 9:28 F 30 La Puente CA
355 Lloyd,Sergio 178 30:03.0 29:24.3 9:29 M 20 La Puente CA
356 Galindo,Matthew 315 29:48.6 29:31.6 9:31 M 24 Baldwin Park CA
357 Briseno,Sergio 385 29:50.5 29:34.4 9:32 M 19 La Puente CA
358 Cox,Steve 444 29:37.8 29:34.5 9:32 M 58 West Covina CA
359 Ramos,Gilbert 233 29:49.7 29:37.2 9:33 M 64 Cherry Valley CA
360 Hayes,Sean 143 30:05.4 29:37.3 9:33 M 58 La Quinta CA
361 Leon,Mayte 177 30:01.5 29:40.7 9:34 F 50 Baldwin Park CA
362 Limon,Jorge 395 29:45.1 29:41.3 9:35 M 25 Baldwin Park CA
363 C Vasquez,Eloy 391 30:16.7 29:41.9 9:35 M 44 El Monte CA
364 Merlo,Magadalena 331 29:45.9 29:42.6 9:35 F 23 West Covina CA
365 Perez,Amanda 224 30:12.2 29:45.1 9:36 F 23 Whittier CA
366 Grindeland,Daryl 134 30:10.5 29:48.9 9:37 M 53 Walnut CA
367 Valenzula,Brenda 346 29:56.8 29:52.0 9:38 F 14 Baldwin Park CA
368 Flores,Gerado 355 30:08.8 29:52.3 9:38 M 29 Pacoima CA
369 White,Jerry 302 30:38.4 30:01.4 9:41 M 50 Diamond Bar CA
370 Gaffney,Norma 110 30:37.9 30:01.6 9:41 F 49 Glendora CA
371 Noah,Flores 356 30:23.6 30:08.9 9:44 M 3 Castaic CA
372 Sanchez,Caroline 662 30:30.6 30:10.3 9:44 F 17 Montebello CA
373 Ortencio,Krystie 536 30:22.9 30:15.4 9:46 F 24 West Covina CA
374 Mitchell,Stu 194 30:32.4 30:16.8 9:46 M 40 Santa Monica CA
375 Ramirez,Oscar 338 30:20.3 30:18.7 9:47 M 16 Baldwin Park CA
376 Avalos,Gilberto 359 30:38.5 30:24.6 9:49 M 10 Pico Rivera CA
377 Stert,Monica 281 30:31.4 30:28.8 9:50 F 15
378 Carmona,Lillibeth 56 30:46.2 30:32.7 9:51 F 13
379 Galindo,Ysela 317 30:33.0 30:33.0 9:51 F 19 Baldwin Park CA
380 Jackson,Lupe 160 30:57.2 30:33.8 9:52 F 57 West Covina CA
381 Becerra,Beverly 401 30:39.7 30:35.0 9:52 F 13 Whittier CA
382 Kander,Mitch 648 31:03.3 30:39.0 9:53 M 55 Sherman Oaks CA
383 Reyes,Vanessa 240 31:03.4 30:39.6 9:53 F 34 West Covina CA
384 Reyes,Laura 236 30:46.2 30:40.3 9:54 F 39 La Puente CA
385 Ortiz,Itzel 335 30:59.5 30:54.5 9:58 F 16 Baldwin Park CA
386 Hennessey,Daniela 627 31:10.8 31:05.7 10:02 F 9
387 Perez,Carolina 337 31:13.3 31:08.8 10:03 F 17 Baldwin Park CA
388 Te,Jaime 344 31:16.3 31:11.3 10:04 F 17 Baldwin Park CA
389 Cleaves,Henderson 74 31:31.4 31:16.1 10:05 M 79 Hemet CA
390 Laine,Chuck 690 31:25.7 31:19.4 10:06 M 66 Whittier CA
391 Roy,Mike 667 31:40.1 31:20.3 10:07 M 54 Whittier CA
392 Roy,Rebecca 668 31:40.4 31:20.5 10:07 F 27 Whittier CA
393 Howard,Ron 155 31:51.6 31:20.9 10:07 M 58 Pasadena CA
394 Rojo,April M. 249 31:51.4 31:23.6 10:08 F 27 Baldwin Park CA
395 Calderon,Tiffany 676 32:07.8 31:27.7 10:09 F 21 El Monte CA
396 Fisch,Scott 101 31:59.6 31:35.4 10:11 M 49 La Verne CA
397 Garcia,Bethany 116 32:03.9 31:37.6 10:12 F 15 Whittier CA
398 Williams,Diane 303 32:18.9 31:56.0 10:18 F 46 Apple Valley CA
399 Greene,Janelle 133 32:24.0 32:11.1 10:23 F 17 Apple Valley CA
400 Lavelle,David 175 32:22.3 32:13.4 10:24 M 63 Corona CA
401 Gonzalez,Janina 126 32:49.4 32:13.5 10:24 F 42 Covina CA
402 Sanchez,Christina 531 32:56.6 32:29.3 10:29 F 25
403 Skolburg,Stephanie 273 33:01.8 32:31.0 10:29 F 42 Alta Loma CA
404 Galindo,Rudy 114 33:10.4 32:52.9 10:36 M 54 Baldwin Park CA
405 Wheeler,Cathleen 721 33:20.6 33:17.9 10:45 F 17
406 Sullivan,Angela 283 33:55.3 33:40.3 10:52 F 32 Atwater Village CA
407 Dominguez,Elisa 628 34:20.5 33:44.9 10:53 F 40 Pico Rivera CA
408 Solorzano,Daniel 432 34:01.6 33:55.3 10:57 M 60 Alhambra CA
409 Pannone,Joe 222 34:24.4 34:03.7 10:59 M 56 Los Angeles CA
410 Medina,Mary 428 34:27.2 34:09.2 11:01 F 58 Downey CA
411 S Lopez,Jose 685 34:33.8 34:12.2 11:02 M 50 South Gate CA
412 Chongtua,Blia 70 34:43.0 34:25.6 11:06 M 52 Commerce CA
413 Horwitz,Rachel 151 35:29.4 35:03.9 11:19 F 21 Beverly Hills CA
414 Paredes,Carlos 223 35:28.6 35:07.2 11:20 M 10 Baldwin Park CA
415 Chavez,Marisol 66 35:28.6 35:09.3 11:20 F 13 Baldwin Park CA
416 Chavez,Analuz 63 35:36.7 35:18.9 11:24 F 16 Baldwin Park CA
417 Mata,Hector 188 35:43.5 35:19.8 11:24 M 34 Baldwin Park CA
418 Sanchez,Viviana 258 35:43.1 35:24.1 11:25 F 13 Baldwin Park CA
419 Aguilar,Eduardo 10 35:27.2 35:24.3 11:25 M 32 Downey CA
420 Obrien,Kelly 621 35:43.3 35:27.9 11:26 F 41 Long Beach CA
421 Perez,Brandie 441 36:06.4 35:38.2 11:30 F 36 La Puente CA
422 Lespron,Virginia 396 36:06.3 35:40.0 11:30 F 75 El Monte CA
423 Magana,Sherry 439 35:57.4 35:45.7 11:32 F 43 Azusa CA
424 Chongtua,Xensue 310 36:02.4 35:45.8 11:32 M 21 Covina CA
425 Arnold,Christopher 22 36:03.0 35:48.8 11:33 M 12 West Covina CA
426 Dominguez,Aaron 84 35:59.7 35:57.4 11:36 M 9 Compton CA
427 Escalante,Vanessa 95 36:11.4 36:00.8 11:37 F 13 Baldwin Park CA
428 Rios,Gabriela 241 36:49.8 36:08.3 11:39 F 29 La Puente CA
429 Orosco,Anna 214 36:32.9 36:22.1 11:44 F 44 La Habra CA
430 Olague,D 211 37:15.1 36:49.0 11:53 F 47 West Covina CA
431 Alarcon,Noah 11 37:17.9 36:55.5 11:55 M 12 Baldwin Park CA
432 Mucino,Sergio 205 37:18.0 36:56.7 11:55 M 41 Baldwin Park CA
433 Gutierrez,Zulma 140 37:17.4 37:07.8 11:59 F 13 Baldwin Park CA
434 Collazo,Jesica 75 37:15.8 37:10.5 12:00 F 16 Baldwin Park CA
435 Robinson,Regina 678 37:56.6 37:17.6 12:02 F 42 Granada Hills CA
436 Liao,Tom 360 38:01.1 37:19.3 12:02 M 42 Alhambra CA
437 Vazquez,Gloria 425 37:44.8 37:24.4 12:04 F 61 Pacoima CA
438 Goren,David 130 37:34.6 37:28.8 12:05 M 46 Irvine CA
439 Clark,Preston 72 38:46.5 38:24.5 12:23 M 46 Anaheim CA
440 Chavez,Selena 68 38:44.4 38:24.8 12:23 F 11 Baldwin Park CA
441 Galindo,Marissa 112 38:44.5 38:26.4 12:24 F 10 Baldwin Park CA
442 Tapia,Evelyn 416 38:46.9 38:32.4 12:26 F 74 La Puente CA
443 Sanchez,Wendy 259 38:55.1 38:36.5 12:27 F 11 Baldwin Park CA
444 Andrade,Bryanna 18 39:28.2 39:06.8 12:37 F 12 Whittier CA
445 Martinez,Erik 186 39:29.2 39:08.1 12:37 M 11 Baldwin Park CA
446 Trevizo,Erika 291 39:31.3 39:12.0 12:39 F 23 El Monte CA
447 Cervantes,Mark 640 40:06.5 39:18.6 12:41 M 23 Baldwin Park CA
448 Duenas,Eduardo 8 40:07.3 39:19.6 12:41 M 29 Baldwin Park CA
449 Enoex-fistori,Ingrid 93 39:52.4 39:23.3 12:42 F 58 Alta Loma CA
450 Rodriguez,Melissa 246 39:57.6 39:25.8 12:43 F 10 Alhambra CA
451 Anila,Alejandra 306 40:06.4 39:28.8 12:44 F 46 Baldwin Park CA
452 Saenz,Erwin 252 39:30.0 39:30.0 12:45 M 24 Long Beach CA
453 Chacon,Amanda 60 39:30.4 39:30.4 12:45 F 19 Downey CA
454 Trujillo,Vanessa 403 39:50.0 39:33.7 12:46 F 17 West Covina CA
455 Chavez,Ana 62 40:03.3 39:46.0 12:50 F 46 Baldwin Park CA
456 Rodriguez,Daisy 708 40:11.5 39:47.0 12:50 F 7
457 Chavez,Erendiva 64 40:09.4 39:51.7 12:52 F 12 Baldwin Park CA
458 Carlton,Sdenka 54 40:42.7 40:16.6 13:00 F 40 Whittier CA
459 Sanchez,Teresa 429 41:02.6 40:44.5 13:09 F 47 Bell CA
460 Hendrix,Stacie 144 41:34.3 40:58.3 13:13 F 35 Long Beach CA
461 Enriquez JR.,Santiago 94 41:46.0 41:06.5 13:16 M 41 La Puente CA
462 Carcamo,Isabella 49 41:39.9 41:14.7 13:18 F 8 Baldwin Park CA
463 Mata,Araceli 187 41:39.6 41:15.1 13:18 F 0 Rancho Cucamonga CA
464 Rodriguez,Mary 245 41:52.4 41:19.6 13:20 F 78 Alhambra CA
465 Snavely,Don 277 41:50.8 41:37.1 13:26 M 75 Shell Knob MO
466 T Washington,Booker 691 41:59.0 41:39.4 13:26 M 73 La Puente CA
467 Scott,Christopher 263 41:55.2 41:39.8 13:26 M 20 Baldwin Park CA
468 Vermeer,Shawn 607 42:26.5 41:48.5 13:29 F 38 Yucaipa CA
469 Padilla-king,Ruth 219 42:14.4 41:51.7 13:30 F 37 Rosemead CA
470 Padilla,Janet 218 42:23.6 42:07.3 13:35 F 20 San Gabriel CA
471 Rueda,Anahi 250 42:35.7 42:15.8 13:38 F 11 Baldwin Park CA
472 Gutierrez,Elida 138 42:33.8 42:17.8 13:39 F 12 Baldwin Park CA
473 Tate,Areana 679 43:10.9 42:31.8 13:43 F 41 Granada Hills CA
474 Sembello,Cruz Baca 265 43:24.3 42:52.4 13:50 F 64 Baldwin Park CA
475 Morales,Sylvia 197 43:50.6 43:18.1 13:58 F 48 Irvine CA
476 Tetef,Merry 287 43:50.7 43:18.9 13:58 F 49 Irvine CA
477 Contreras,Maria 312 43:49.1 43:20.9 13:59 F 64 Baldwin Park CA
478 Morales,Melba 195 43:57.2 43:27.0 14:01 F 75 Baldwin Park CA
479 Gaspar,Dujua 120 44:08.1 43:44.3 14:07 M 8 Baldwin Park CA
480 Mata,Ana 328 44:53.9 44:28.1 14:21 F 27 Baldwin Park CA
481 Carcamo,Cassidy 47 44:53.9 44:30.7 14:22 F 12 Baldwin Park CA
482 Chacon,Vanessa 61 45:05.6 44:35.4 14:23 F 15 Downey CA
483 Campos,Alejandra 44 45:05.8 44:35.6 14:23 F 15 West Covina CA
484 Alvarez,Cathy 15 45:36.8 45:03.5 14:32 F 43 Monterey Park CA
485 Ayala,Karina 703 46:16.5 45:35.2 14:42 F 34 San Bernardino CA
486 Hadsell,Lili 141 47:01.3 46:18.5 14:56 F 54 Baldwin Park CA
487 Bartolotti,Helen 35 47:01.6 46:18.9 14:56 F 38 La Verne CA
488 Barcelo,Jorge 30 47:19.3 46:49.5 15:06 M 35 Walnut CA
489 Rodriguez,Taneisha 340 47:22.8 46:49.6 15:06 F 22 Baldwin Park CA
490 Lavelle,Anita 174 47:54.7 47:15.2 15:15 F 61 Corona CA
491 Rodriguez,Natasha 339 47:22.7 47:22.7 15:17 F 19 Baldwin Park CA
492 Yepez,Miranda 454 48:23.6 48:05.9 15:31 F 12 La Puente CA
493 Galindo,Nadine 113 48:27.7 48:09.2 15:32 F 52 Baldwin Park CA
494 Garcia,Marlen 118 48:47.8 48:16.1 15:34 F 45 Baldwin Park CA
495 Tyson,Lono 292 49:08.0 48:39.9 15:42 M 83 Movrovia CA
496 Ayala,Joann 26 50:56.3 50:13.2 16:12 F 43 Baldwin Park CA
497 Ayala,Jackie 24 50:57.2 50:14.6 16:12 F 49 San Diego CA
498 Baza,DR. Ron 37 50:56.4 50:15.5 16:13 M 62 San Diego CA
499 Ayala,Jean 25 50:58.9 50:17.6 16:13 F 43 Baldwin Park CA
500 Caballero,George 43 51:06.7 50:39.6 16:21 M 65 Los Angeles CA
501 Ramirez,Chelsy 442 50:45.7 50:45.7 16:22 F 18 West Covina CA
502 Guerrero,Angel 135 51:00.6 50:50.6 16:24 M 12 Baldwin Park CA
503 Vithoulkas,Elizabeth 629 51:03.2 50:53.8 16:25 F 63 Downey CA
504 Gonzalez,Elva 630 51:03.9 50:54.2 16:25 F 69 Downey CA
505 Reyes,Martha H. 237 51:34.9 51:03.5 16:28 F 50 Baldwin Park CA
506 Flores,Aracely 102 51:33.6 51:07.3 16:29 F 23 Baldwin Park CA
507 Campos,Ben 45 51:28.1 51:19.4 16:33 M 76 Rowland CA
508 Reyes,Pamela 666 52:43.5 52:14.8 16:51 F 22 Baldwin Park CA
509 Flores,Christina 104 52:45.4 52:15.8 16:52 F 35 Whittier CA
510 Corona-campos,Norma 78 52:45.3 52:18.2 16:52 F 44 West Covina CA
511 Greenberg,Dick 693 53:26.8 52:53.2 17:04 M 89 Encino CA
512 Clark,Tracey 73 53:19.0 52:57.6 17:05 F 47 Anaheim CA
513 Mata,Esperanza 329 58:25.8 58:00.3 18:43 F 58 Baldwin Park CA
514 Hernandez,Jesse JR. 147 59:37.7 59:07.7 19:04 M 21 Baldwin Park CA
515 Varela,Dee 397 1:00:54.1 1:00:12.5 19:25 F 53 West Covina CA
516 Y Kelly,Consta 637 1:04:25.0 1:03:35.8 20:31 F 52 Chino Hills CA
517 Monahan,Frank 414 1:04:24.8 1:03:53.6 20:37 M 53 Ontario CA
518 Fong,William 107 1:07:43.1 1:07:32.7 21:47 M 72 San Dimas CA
519 Fong,Shannon 106 1:07:43.4 1:07:32.7 21:47 F 68 San Dimas CA